Weather in Karlova Studanka

Czech Republic     50°04′26″N   17°18′27″E
temp.,
°C
wind,
m/s
gust,
m/s
humid.,
%
clouds,
%
prec.,
mm/h
press.,
hPa
HPBL,
m
9 may, sun
sun923:00+2sse117829 0.0 102112
02:00+2ssw128179 0.0 102137
05:00+1ssw24865 0.0 1021100
08:00+6ssw476755 0.0 1020322
11:00+11ssw58596 0.0 1019601
14:00+14ssw695770 0.0 1018824
17:00+14ssw595848 0.0 1017869
20:00+10ssw4117528 0.0 1017471
10 may, mon
mon1023:00+7ssw3107850 0.0 1018306
02:00+7ssw29755 0.0 1017290
05:00+6ssw18715 0.0 1016236
08:00+11s515585 0.0 1014865
11:00+15s7145796 0.0 10131104
14:00+16ssw7116358 0.0 10141081
17:00+16s5116982 0.0 10141275
20:00+14sse257987 0.0 1014134
11 may, tue
tue1123:00+12ese138520 0.0 101477
02:00+10ese139116 0.0 101289
05:00+9sse14944 0.0 101193
08:00+15s5146719 0.0 1010964
11:00+18s7165734 0.0 10101270
14:00+19ssw7135839 0.0 10101264
17:00+20s51158100 0.0 10081313
20:00+15sse3879100 0.0 1008265
12 may, wed
wed1223:00+12ese149016 0.0 100882
02:00+11e12916 0.0 100728
05:00+11ene01903 0.0 100618
08:00+16s37674 0.0 1005897
11:00+18s356188 0.0 10051253
14:00+18s2363100 0.2 10041078
17:00+16sw1281100 1.4 1003164
20:00+12w2398100 9.7 100392
13 may, thu
thu1323:00+12nnw1199100 0.2 100349
02:00+11nne2498100 1.3 1002372
05:00+10nne2698100 0.5 1002506
08:00+9nne3793100 0.6 1002430
11:00+12ne4670100 0.0 1002834
14:00+13ne456685 0.1 10021250
17:00+12nne356672 0.2 10031069
20:00+9nne228435 0.3 100544